Location: Unnamed
(45.3580°N, 90.2245°W)
Time: 03:53:54
(UTC-06:00)

BlueWalker 3 - Visible Passes

Search period start: 21 January 2026 00:00
Search period end: 31 January 2026 00:00
Orbit: 451 x 463 km, 53.2° (Epoch: 20 January)

Date Brightness Start Highest point End Pass type
(mag) Time Alt. Az. Time Alt. Az. Time Alt. Az.
21 Jan 3.7 17:36:23 10° S 17:38:42 16° SE 17:40:59 10° E visible
21 Jan 2.8 19:12:14 10° WSW 19:14:44 43° WSW 19:14:44 43° WSW visible
22 Jan 1.6 18:36:48 10° SW 18:40:21 84° SE 18:40:58 59° ENE visible
23 Jan 1.8 18:01:21 10° SW 18:04:54 66° SE 18:07:06 21° ENE visible
23 Jan 4.3 19:39:23 10° W 19:40:51 20° WNW 19:40:51 20° WNW visible
24 Jan 2.1 17:25:58 10° SW 17:29:25 50° SE 17:32:53 10° ENE visible
24 Jan 2.9 19:03:43 10° W 19:06:54 35° NNW 19:06:54 35° NNW visible
25 Jan 2.6 18:28:02 10° W 18:31:26 40° NNW 18:32:53 26° NNE visible
26 Jan 2.4 17:52:22 10° WSW 17:55:49 48° NNW 17:58:49 13° NE visible
26 Jan 4.1 19:30:59 10° WNW 19:32:32 18° NW 19:32:32 18° NW visible
27 Jan 3.4 18:55:15 10° WNW 18:58:13 24° N 18:58:24 24° N visible
28 Jan 3.3 18:19:27 10° WNW 18:22:30 25° N 18:24:14 18° NNE visible
28 Jan 4.9 19:57:45 10° NW 19:57:57 11° NW 19:57:57 11° NW visible
29 Jan 3.2 17:43:39 10° WNW 17:46:45 27° NNW 17:49:52 10° NE visible
29 Jan 3.9 19:22:03 10° NW 19:23:45 19° NNW 19:23:45 19° NNW visible
30 Jan 3.3 18:46:20 10° NW 18:49:15 23° N 18:49:32 23° NNE visible
